Date String (YYYY-MM-DD hh:mm:ss) UTC,Instrument flags,Ambient pressure (hPa),Sample flow (lpm),Bypass flow (lpm),Sample temperature (°C),Ambient temperature (°C),ASC tube jacket temperature (°C),LED temperature (°C),Box temperature (°C),Sample RH (%),Span deviation,Mass concentration (μg/m³),Mass concentration (μg/m³),Mass concentration (μg/m³)
DateTimeUTC,F1_M11,P_M11,Q1_M11,Q2_M11,T1_M11,T2_M11,T3_M11,T4_M11,T5_M11,U1_M11,ZSPAN_M11,X0_M11,X2_M11,X1_M11
2023-05-24 17:00:00,,0831.2,5.00,0.00,29.8,28.3,00.0,38.0,31.4,28.8,0003.4,0033.83,0021.96,0020.88
2023-05-24 17:01:00,,0831.2,4.99,0.00,29.7,26.8,00.0,37.9,31.3,28.8,0003.3,0033.69,0021.98,0020.89
2023-05-24 17:02:00,,0831.1,5.00,0.00,29.7,25.4,00.0,37.8,31.0,29.1,0003.3,0034.02,0022.02,0020.92
2023-05-24 17:03:00,,0831.1,5.00,0.00,29.6,25.2,00.0,37.8,30.9,29.4,0003.3,0034.71,0022.15,0020.97
2023-05-24 17:04:00,,0831.1,5.01,0.00,29.5,25.5,00.0,37.8,30.8,30.2,0003.3,0034.91,0022.12,0020.94
2023-05-24 17:05:00,,0831.1,5.01,0.00,29.4,25.8,00.0,37.8,30.8,30.3,0003.3,0034.34,0022.07,0020.92
2023-05-24 17:06:00,,0831.1,5.00,0.00,29.4,26.2,00.0,37.8,30.9,30.9,0003.3,0034.50,0022.11,0020.97
2023-05-24 17:07:00,,0831.0,5.00,0.00,29.4,26.5,00.0,37.8,30.9,30.7,0003.2,0035.11,0022.10,0020.93
2023-05-24 17:08:00,,0830.9,5.00,0.00,29.4,26.8,00.0,37.7,31.0,30.5,0003.2,0035.15,0022.07,0020.91
2023-05-24 17:09:00,,0830.9,5.00,0.00,29.4,27.1,00.0,37.7,31.0,30.3,0003.3,0035.65,0022.14,0020.96
2023-05-24 17:10:00,,0830.9,5.00,0.00,29.4,27.3,00.0,37.7,31.0,30.6,0003.2,0035.61,0022.21,0020.99
2023-05-24 17:11:00,,0830.8,5.00,0.00,29.4,27.5,00.0,37.7,31.0,31.3,0003.1,0035.66,0022.23,0020.98
2023-05-24 17:12:00,,0830.9,5.00,0.00,29.4,27.6,00.0,37.7,31.1,32.1,0003.1,0035.65,0022.20,0020.95
2023-05-24 17:13:00,,0830.9,5.00,0.00,29.4,27.7,00.0,37.8,31.1,31.1,0003.1,0035.43,0022.16,0020.93
2023-05-24 17:14:00,,0830.9,5.00,0.00,29.4,27.8,00.0,37.8,31.1,31.3,0003.0,0034.78,0022.05,0020.85
2023-05-24 17:15:00,,0830.9,4.99,0.00,29.5,27.9,00.0,37.8,31.2,31.1,0002.9,0033.90,0022.00,0020.80
2023-05-24 17:16:00,,0831.0,5.01,0.00,29.5,28.0,00.0,37.8,31.2,31.6,0002.8,0034.16,0021.97,0020.76
2023-05-24 17:17:00,,0830.9,5.02,0.00,29.5,28.1,00.0,37.8,31.2,31.8,0002.7,0033.89,0021.84,0020.65
2023-05-24 17:18:00,,0830.9,5.00,0.00,29.5,28.1,00.0,37.8,31.3,31.7,0002.6,0033.08,0021.69,0020.56
2023-05-24 17:19:00,,0830.9,4.99,0.00,29.6,28.2,00.0,37.8,31.3,31.6,0002.7,0032.86,0021.65,0020.51
2023-05-24 17:20:00,,0830.9,4.99,0.00,29.6,28.2,00.0,37.8,31.3,31.5,0002.7,0033.54,0021.61,0020.47
2023-05-24 17:21:00,,0830.9,5.00,0.00,29.6,28.3,00.0,37.9,31.3,32.1,0002.7,0033.52,0021.50,0020.38
2023-05-24 17:22:00,,0830.9,5.01,0.00,29.6,28.3,00.0,37.9,31.3,31.4,0002.8,0032.74,0021.44,0020.35
2023-05-24 17:23:00,,0830.9,5.01,0.00,29.7,28.3,00.0,37.9,31.4,31.3,0002.8,0032.55,0021.44,0020.34
2023-05-24 17:24:00,,0831.0,4.99,0.00,29.7,28.4,00.0,37.9,31.4,31.2,0002.8,0032.74,0021.48,0020.35
2023-05-24 17:25:00,,0831.0,4.99,0.00,29.7,28.3,00.0,37.9,31.4,31.5,0002.9,0032.66,0021.46,0020.34
2023-05-24 17:26:00,,0830.9,5.00,0.00,29.7,26.9,00.0,37.9,31.3,30.7,0003.0,0032.40,0021.36,0020.29
2023-05-24 17:27:00,,0830.9,5.01,0.00,29.7,26.0,00.0,37.8,31.1,30.7,0003.0,0032.20,0021.33,0020.30
2023-05-24 17:28:00,,0830.9,5.01,0.00,29.6,26.0,00.0,37.8,31.0,30.9,0003.1,0032.71,0021.41,0020.35
2023-05-24 17:29:00,,0830.9,5.00,0.00,29.5,26.3,00.0,37.8,31.0,30.9,0003.1,0033.03,0021.48,0020.42
2023-05-24 17:30:00,,0830.9,5.00,0.00,29.5,26.6,00.0,37.8,31.0,31.3,0003.0,0033.75,0021.54,0020.46
2023-05-24 17:31:00,,0830.9,5.00,0.00,29.5,26.8,00.0,37.8,31.1,31.5,0002.9,0033.80,0021.53,0020.43
2023-05-24 17:32:00,,0830.9,5.00,0.00,29.5,27.1,00.0,37.8,31.1,31.8,0002.9,0033.35,0021.57,0020.46
2023-05-24 17:33:00,,0830.9,5.00,0.00,29.5,27.3,00.0,37.8,31.1,32.4,0002.9,0033.44,0021.56,0020.44
2023-05-24 17:34:00,,0831.0,5.00,0.00,29.5,27.5,00.0,37.8,31.1,32.7,0002.7,0034.71,0021.64,0020.43
2023-05-24 17:35:00,,0830.9,4.99,0.00,29.5,27.7,00.0,37.8,31.2,32.4,0002.6,0034.61,0021.57,0020.37
2023-05-24 17:36:00,,0830.9,4.99,0.00,29.5,27.8,00.0,37.8,31.2,32.7,0002.4,0034.63,0021.58,0020.38
2023-05-24 17:37:00,,0830.9,5.00,0.00,29.5,27.9,00.0,37.8,31.2,32.6,0002.4,0034.91,0021.68,0020.44
2023-05-24 17:38:00,,0830.9,5.00,0.00,29.6,28.0,00.0,37.9,31.3,32.9,0002.3,0035.10,0021.68,0020.42
2023-05-24 17:39:00,,0830.9,5.01,0.00,29.6,28.1,00.0,37.9,31.3,32.9,0002.4,0034.68,0021.61,0020.41
2023-05-24 17:40:00,,0830.9,5.00,0.00,29.6,28.1,00.0,37.9,31.3,32.1,0002.3,0035.63,0021.65,0020.41
2023-05-24 17:41:00,,0830.9,5.00,0.00,29.6,28.2,00.0,37.9,31.3,32.1,0002.2,0035.98,0021.66,0020.42
2023-05-24 17:42:00,,0830.9,5.00,0.00,29.6,28.3,00.0,37.9,31.4,32.0,0002.4,0035.09,0021.72,0020.47
2023-05-24 17:43:00,,0830.8,4.98,0.00,29.7,27.7,00.0,37.9,31.3,32.3,0002.3,0035.08,0021.73,0020.51
2023-05-24 17:44:00,,0830.8,4.99,0.00,29.6,26.1,00.0,37.8,31.1,32.0,0002.3,0035.38,0021.72,0020.55
2023-05-24 17:45:00,,0830.8,5.00,0.00,29.5,25.1,00.0,37.7,30.9,32.2,0002.3,0034.52,0021.68,0020.59
2023-05-24 17:46:00,,0830.8,5.00,0.00,29.4,25.0,00.0,37.7,30.7,32.6,0002.4,0034.88,0021.66,0020.60
2023-05-24 17:47:00,,0830.8,5.01,0.00,29.3,25.3,00.0,37.7,30.7,33.0,0002.5,0036.07,0021.67,0020.61
2023-05-24 17:48:00,,0830.8,5.00,0.00,29.3,25.7,00.0,37.7,30.7,32.5,0002.6,0036.34,0021.68,0020.64
2023-05-24 17:49:00,,0830.8,5.00,0.00,29.3,26.1,00.0,37.7,30.8,32.6,0002.6,0036.22,0021.76,0020.72
2023-05-24 17:50:00,,0830.8,5.00,0.00,29.3,26.4,00.0,37.6,30.8,32.3,0002.6,0036.92,0021.83,0020.79
2023-05-24 17:51:00,,0830.8,5.00,0.00,29.3,26.7,00.0,37.6,30.8,32.8,0002.7,0036.46,0021.84,0020.81
2023-05-24 17:52:00,,0830.7,4.99,0.00,29.3,27.0,00.0,37.6,30.9,33.0,0002.7,0035.79,0021.83,0020.80
2023-05-24 17:53:00,,0830.7,5.00,0.00,29.3,27.2,00.0,37.6,30.9,33.5,0002.7,0035.89,0021.83,0020.80
2023-05-24 17:54:00,,0830.7,5.00,0.00,29.3,27.4,00.0,37.6,30.9,33.5,0002.7,0035.91,0021.88,0020.81
2023-05-24 17:55:00,,0830.7,5.01,0.00,29.3,27.5,00.0,37.6,31.0,33.6,0002.7,0035.55,0021.93,0020.83
2023-05-24 17:56:00,,0830.7,5.00,0.00,29.3,27.6,00.0,37.6,31.0,33.4,0002.7,0035.68,0022.02,0020.91
2023-05-24 17:57:00,,0830.7,5.01,0.00,29.3,27.7,00.0,37.7,31.1,33.3,0002.7,0036.50,0022.16,0021.03
2023-05-24 17:58:00,,0830.7,5.00,0.00,29.4,27.8,00.0,37.7,31.1,33.2,0002.7,0036.25,0022.25,0021.07
2023-05-24 17:59:00,,0830.7,4.99,0.00,29.4,27.9,00.0,37.7,31.1,33.1,0002.6,0036.39,0022.23,0021.06
